Location: Observatoire
(46.1952°N, 5.3391°E)
Time: 16:41:20
(UTC+01:00)

Injun/Solrad 3 - Pass Details

Date: 22 February 2026
Orbit: 872 x 984 km, 66.8° (Epoch: 7 March)

Event Time Altitude Azimuth Distance (km) Brightness Sun altitude
Rises 19:59:18 0° 324° (NW) 3,581 11.6 -18.8°
Reaches altitude 10° 20:01:50 10° 321° (NW) 2,651 10.9 -19.2°
Maximum altitude 20:07:53 59° 243° (WSW) 1,091 8.5 -20.3°
Drops below altitude 10° 20:14:05 10° 166° (SSE) 2,704 10.1 -21.3°
Enters shadow 20:15:19 - 164° (SSE) 3,151 10.4 -21.5°
